Location: Gro�wechsungen
(51.4926°N, 10.6901°E)
Time: 15:16:09
(UTC+00:00)

Cosmos 1975 - Pass Details

Date: 18 September 2020
Orbit: 541 x 562 km, 82.5° (Epoch: 21 October)

Event Time Altitude Azimuth Distance (km) Brightness Sun altitude
Rises 18:45:12 0° 207° (SSW) 2,746 6.5 -13.2°
Reaches altitude 10° 18:47:28 10° 215° (SW) 1,854 5.7 -13.5°
Maximum altitude 18:51:21 41° 286° (WNW) 822 4.3 -14.1°
Drops below altitude 10° 18:55:15 10° 358° (N) 1,862 5.8 -14.7°
Sets 18:57:32 0° 6° (N) 2,760 6.6 -15.0°
